Location: Molveno
(46.1500°N, 10.9667°E)
Time: 01:43:51
(UTC+00:00)

Lacrosse 5 rocket - Pass Details

Date: 05 July 2020
Orbit: 465 x 632 km, 57.0° (Epoch: 11 August)

Event Time Altitude Azimuth Distance (km) Brightness Sun altitude
Rises 21:15:05 0° 295° (WNW) 2,782 5.9 -15.5°
Reaches altitude 10° 21:18:00 10° 315° (NW) 1,848 5.2 -15.8°
Maximum altitude 21:20:53 18° 359° (N) 1,387 4.2 -16.0°
Drops below altitude 10° 21:23:39 10° 43° (NE) 1,775 4.1 -16.2°
Sets 21:26:23 0° 63° (ENE) 2,627 4.8 -16.4°
